Terminal Aerodrome Forecast
Issued by NWS

Home | Current Version | Previous Version | Graphics & Text | Print | Product List | Glossary On
Versions: 1 2 3 4 5 6 7 8 9 10 11 12 13 14 15 16 17 18 19 20
000
FTUS42 KMHX 240839 AAA
TAFOAJ
TAF AMD
KOAJ 240839Z 2409/2506 01006KT P6SM BKN020
     FM241400 06006KT P6SM SCT050 BKN100
     FM250200 05005KT P6SM OVC050
      AMD LTD TO CLD VIS AND WIND=

USA.gov is the U.S. government's official web portal to all federal, state and local government web resources and services.